Simultaneous Nadir Overpasses (SNOs) Predictions

Prediction of SNOs over PacNW region [( 10.00, 139.50) to ( 22.70, 165.60)] between AQUA and NPP Satellites:

Table of predicted SNOs over PacNW region for the next 30.0 days since TLE Epoch: 7/2/2022
Index Date (AQUA) Time (AQUA) AQUA Lat,Lon Date (NPP) Time (NPP) NPP Lat,Lon Distance(km) Time Diff (sec)
1 07/09/2022 02:44:01 22.66, 160.31 07/09/2022 02:42:56 22.02, 157.05 342.37 65
2 07/11/2022 16:22:33 10.03, 140.60 07/11/2022 16:19:04 7.98, 137.79 383.28 209
3 07/17/2022 03:29:54 15.77, 150.00 07/17/2022 03:31:48 14.89, 146.06 433.81 114
4 07/19/2022 15:31:26 10.05, 153.42 07/19/2022 15:27:57 9.71, 150.85 284.81 209
5 07/25/2022 02:38:17 14.03, 163.21 07/25/2022 02:40:40 13.13, 159.13 452.21 143
6 07/27/2022 16:16:23 20.17, 143.80 07/27/2022 16:15:42 20.74, 140.73 325.65 41
